Regional Weather Roundup
Issued by NWS

Home | Current Version | Previous Version | Text Only | Print | Product List | Glossary On
Versions: 1 2 3 4 5 6 7 8 9 10 11 12 13 14 15 16 17 18 19 20 21 22 23 24 25 26 27 28 29 30 31 32 33 34 35 36 37 38 39 40 41 42 43 44 45 46 47 48 49 50
000
ASUS43 KBIS 212310
RWRND

NORTH DAKOTA REGIONAL WEATHER ROUNDUP
NATIONAL WEATHER SERVICE BISMARCK ND
600 PM CDT SUN SEP 21 2014

NOTE: "FAIR" INDICATES FEW OR NO CLOUDS BELOW 12,000 FEET WITH NO
SIGNIFICANT WEATHER AND/OR OBSTRUCTIONS TO VISIBILITY.


NDZ001>003-009>011-017-220000-
NORTHWEST NORTH DAKOTA

CITY           SKY/WX    TMP DP  RH WIND       PRES   REMARKS
WILLISTON      SUNNY     73  32  22 SE8       30.19F
MINOT          SUNNY     72  38  29 W5        30.18F
MINOT AFB      SUNNY     72  40  31 W6        30.17F
$$

NDZ018>021-031>035-040>046-220000-
SOUTHWEST NORTH DAKOTA

CITY           SKY/WX    TMP DP  RH WIND       PRES   REMARKS
BISMARCK       SUNNY     73  41  31 N7        30.22F
DICKINSON      SUNNY     73  35  25 CALM      30.22F
GARRISON         N/A     70  42  36 SW10      30.20F
HETTINGER ARPT SUNNY     71  36  27 CALM      30.25F
$$

NDZ004>008-012>016-024-026-027-054-220000-
NORTHEAST NORTH DAKOTA

CITY           SKY/WX    TMP DP  RH WIND       PRES   REMARKS
GRAND FORKS    MOSUNNY   67  49  52 VRB3      30.18F
GRND FRKS AFB  SUNNY     65  50  58 E1        30.19F
DEVILS LAKE    SUNNY     66  46  48 W8        30.18S
$$

NDZ022-023-025-028>030-036>039-047>053-220000-
SOUTHEAST NORTH DAKOTA

CITY           SKY/WX    TMP DP  RH WIND       PRES   REMARKS
FARGO          SUNNY     66  50  56 N3        30.20F
JAMESTOWN      SUNNY     67  47  48 W5        30.20F
$$



USA.gov is the U.S. government's official web portal to all federal, state and local government web resources and services.